TimeCDT,TemperatureF,Dew PointF,Humidity,Sea Level PressureIn,VisibilityMPH,Wind Direction,Wind SpeedMPH,Gust SpeedMPH,PrecipitationIn,Events,Conditions,WindDirDegrees,DateUTC
12:53 AM,66.0,64.9,96,30.10,5.0,Calm,Calm,-,N/A,,Mostly Cloudy,0,2013-10-13 05:53:00
1:05 AM,64.4,64.4,100,30.11,2.5,Calm,Calm,-,N/A,,Scattered Clouds,0,2013-10-13 06:05:00
1:11 AM,64.4,64.4,100,30.11,0.8,Calm,Calm,-,N/A,,Scattered Clouds,0,2013-10-13 06:11:00
1:24 AM,64.4,64.4,100,30.11,1.2,Calm,Calm,-,N/A,,Partly Cloudy,0,2013-10-13 06:24:00
1:29 AM,64.4,64.4,100,30.11,0.8,Calm,Calm,-,N/A,,Mist,0,2013-10-13 06:29:00
1:53 AM,64.0,64.0,100,30.11,0.5,Calm,Calm,-,N/A,Fog,Fog,0,2013-10-13 06:53:00
2:06 AM,64.4,64.4,100,30.12,2.0,Calm,Calm,-,N/A,,Overcast,0,2013-10-13 07:06:00
2:12 AM,64.4,64.4,100,30.12,8.0,Calm,Calm,-,N/A,,Overcast,0,2013-10-13 07:12:00
2:53 AM,66.0,66.0,100,30.12,8.0,Calm,Calm,-,N/A,,Overcast,0,2013-10-13 07:53:00
3:53 AM,66.0,66.0,100,30.12,8.0,NE,3.5,-,N/A,,Overcast,50,2013-10-13 08:53:00
4:50 AM,66.2,66.2,100,30.14,4.0,Calm,Calm,-,N/A,,Scattered Clouds,0,2013-10-13 09:50:00
4:53 AM,64.9,64.9,100,30.14,4.0,Calm,Calm,-,N/A,,Partly Cloudy,0,2013-10-13 09:53:00
4:58 AM,64.4,64.4,100,30.15,1.5,Calm,Calm,-,N/A,,Partly Cloudy,0,2013-10-13 09:58:00
5:07 AM,64.4,64.4,100,30.16,0.5,Calm,Calm,-,N/A,Fog,Fog,0,2013-10-13 10:07:00
5:12 AM,64.4,64.4,100,30.16,1.0,Calm,Calm,-,N/A,,Mostly Cloudy,0,2013-10-13 10:12:00
5:16 AM,64.4,64.4,100,30.16,3.0,Calm,Calm,-,N/A,,Mostly Cloudy,0,2013-10-13 10:16:00
5:28 AM,66.2,66.2,100,30.16,5.0,North,4.6,-,N/A,,Overcast,10,2013-10-13 10:28:00
5:39 AM,66.2,64.4,94,30.15,3.0,NNW,3.5,-,N/A,,Overcast,340,2013-10-13 10:39:00
5:48 AM,64.4,64.4,100,30.16,2.0,North,3.5,-,N/A,,Overcast,360,2013-10-13 10:48:00
5:53 AM,66.0,66.0,100,30.15,2.5,Calm,Calm,-,N/A,,Overcast,0,2013-10-13 10:53:00
6:00 AM,64.4,64.4,100,30.16,5.0,NNW,3.5,-,N/A,,Overcast,330,2013-10-13 11:00:00
6:07 AM,64.4,64.4,100,30.16,7.0,NNW,4.6,-,N/A,,Overcast,330,2013-10-13 11:07:00
6:36 AM,64.4,64.4,100,30.16,6.0,Calm,Calm,-,N/A,,Overcast,0,2013-10-13 11:36:00
6:53 AM,64.9,64.9,100,30.16,2.0,Calm,Calm,-,N/A,,Overcast,0,2013-10-13 11:53:00
7:02 AM,64.4,64.4,100,30.17,1.8,Calm,Calm,-,N/A,,Overcast,0,2013-10-13 12:02:00
7:10 AM,64.4,64.4,100,30.17,3.0,NE,3.5,-,N/A,,Overcast,40,2013-10-13 12:10:00
7:53 AM,66.0,66.0,100,30.18,5.0,NE,3.5,-,N/A,,Overcast,50,2013-10-13 12:53:00
8:20 AM,66.2,66.2,100,30.21,7.0,NE,4.6,-,N/A,,Overcast,40,2013-10-13 13:20:00
8:28 AM,66.2,66.2,100,30.21,7.0,NE,5.8,-,N/A,,Overcast,40,2013-10-13 13:28:00
8:36 AM,66.2,66.2,100,30.21,7.0,NE,4.6,-,N/A,,Overcast,50,2013-10-13 13:36:00
8:45 AM,66.2,66.2,100,30.22,8.0,NNE,5.8,-,N/A,,Overcast,30,2013-10-13 13:45:00
8:53 AM,66.9,66.9,100,30.22,9.0,NNE,6.9,-,N/A,,Overcast,30,2013-10-13 13:53:00
9:02 AM,68.0,66.2,94,30.22,10.0,NE,6.9,-,N/A,,Overcast,40,2013-10-13 14:02:00
9:53 AM,68.0,66.9,96,30.24,9.0,NE,8.1,-,N/A,,Overcast,50,2013-10-13 14:53:00
10:53 AM,70.0,66.9,90,30.24,8.0,NNE,11.5,-,N/A,,Overcast,30,2013-10-13 15:53:00
11:08 AM,71.6,66.2,83,30.25,8.0,NE,9.2,-,N/A,,Overcast,40,2013-10-13 16:08:00
11:15 AM,71.6,66.2,83,30.25,8.0,NE,11.5,-,N/A,,Overcast,50,2013-10-13 16:15:00
11:34 AM,71.6,66.2,83,30.25,10.0,NE,10.4,-,N/A,,Overcast,40,2013-10-13 16:34:00
11:53 AM,71.1,66.0,84,30.24,9.0,NE,10.4,-,N/A,,Overcast,50,2013-10-13 16:53:00
12:17 PM,71.6,66.2,83,30.25,9.0,NNE,6.9,-,N/A,,Overcast,30,2013-10-13 17:17:00
12:53 PM,72.0,66.0,81,30.23,10.0,NNE,5.8,-,N/A,,Overcast,30,2013-10-13 17:53:00
1:31 PM,71.6,66.2,83,30.22,10.0,NE,10.4,-,N/A,,Overcast,50,2013-10-13 18:31:00
1:40 PM,71.6,66.2,83,30.21,10.0,NNE,6.9,-,N/A,,Overcast,30,2013-10-13 18:40:00
1:53 PM,72.0,66.0,81,30.20,10.0,NNE,5.8,-,N/A,,Overcast,20,2013-10-13 18:53:00
2:53 PM,73.0,66.0,79,30.18,10.0,NE,10.4,-,N/A,,Overcast,50,2013-10-13 19:53:00
3:53 PM,72.0,66.0,81,30.18,10.0,NNE,8.1,-,N/A,,Overcast,20,2013-10-13 20:53:00
4:53 PM,71.1,66.0,84,30.17,10.0,NE,9.2,-,N/A,,Overcast,40,2013-10-13 21:53:00
5:53 PM,70.0,64.9,84,30.17,10.0,NE,9.2,-,N/A,,Overcast,40,2013-10-13 22:53:00
6:53 PM,68.0,64.9,90,30.19,10.0,NE,5.8,-,N/A,,Scattered Clouds,50,2013-10-13 23:53:00
7:53 PM,66.9,64.9,93,30.19,7.0,NE,3.5,-,N/A,,Clear,40,2013-10-14 00:53:00
8:53 PM,66.0,64.9,96,30.21,6.0,Calm,Calm,-,N/A,,Clear,0,2013-10-14 01:53:00
9:53 PM,66.0,64.9,96,30.20,5.0,Calm,Calm,-,N/A,,Clear,0,2013-10-14 02:53:00
10:53 PM,66.0,64.9,96,30.20,6.0,North,3.5,-,N/A,,Clear,350,2013-10-14 03:53:00
11:53 PM,66.0,64.0,93,30.19,6.0,NNW,3.5,-,N/A,,Clear,340,2013-10-14 04:53:00